Regional Weather Roundup
Issued by NWS

Home | Current Version | Previous Version | Graphics & Text | Print | Product List | Glossary On
Versions: 1 2 3 4 5 6 7 8 9 10 11 12 13 14 15 16 17 18 19 20 21 22 23 24 25 26 27 28 29 30 31 32 33 34 35 36 37 38 39 40 41 42 43 44 45 46 47 48 49 50
000
ASUS43 KFSD 241302
RWRSD

WEATHER ROUNDUP FOR SOUTH DAKOTA
NATIONAL WEATHER SERVICE SIOUX FALLS SD
800 AM CDT FRI OCT 24 2014

NOTE: "FAIR" INDICATES FEW OR NO CLOUDS BELOW 12,000 FEET WITH NO
SIGNIFICANT WEATHER AND/OR OBSTRUCTIONS TO VISIBILITY.


SDZ001>005-009-010-012>017-241400-
NORTHWEST AND NORTH CENTRAL SOUTH DAKOTA

CITY           SKY/WX    TMP DP  RH WIND       PRES   REMARKS
FAITH            N/A     46  31  55 W6        29.90R
MOBRIDGE       CLOUDY    41  37  86 SE3       29.85R
$$

SDZ012>016-024>037-041>051-057-063-072>074-241400-
SOUTHWEST AND SOUTH CENTRAL SOUTH DAKOTA

CITY           SKY/WX    TMP DP  RH WIND       PRES   REMARKS
RAPID CTY ARPT CLOUDY    50  32  50 N12       29.93R
PIERRE         CLOUDY    41  33  73 W5        29.87R
CUSTER         CLOUDY    50  24  36 W6        30.04R
ELLSWORTH AFB  CLOUDY    45  34  65 N9        29.93R
PHILIP         CLOUDY    37  32  82 W5        29.90R
PINE RIDGE     CLOUDY    51  36  56 CALM      29.96R
SPEARFISH      FAIR      48  30  49 W9        29.98R
WINNER         FAIR      54  32  43 SW6       29.90R
$$

SDZ004>011-016>023-039-040-241400-
NORTHEAST SOUTH DAKOTA

CITY           SKY/WX    TMP DP  RH WIND       PRES   REMARKS
ABERDEEN       CLOUDY    35  34  96 SW5       29.84F
WATERTOWN      CLOUDY    40  40 100 SW3       29.85R
SISSETON         N/A     40  39  97 S5        29.82R
$$

SDZ017-020-022-023-036>040-048>070-241400-
SOUTHEAST SOUTH DAKOTA

CITY           SKY/WX    TMP DP  RH WIND       PRES   REMARKS
SIOUX FALLS    MOCLDY    49  49 100 W3        29.85S FOG
HURON          CLOUDY    38  36  92 NW6       29.86R
CHAMBERLAIN    CLOUDY    43  35  71 W6        29.88S
MITCHELL       CLOUDY    46  41  82 W5        29.87R
YANKTON        CLOUDY    52  48  87 W7        29.87R
$$

ABBREVIATIONS USED IN REMARKS
   TC - TEMPERATURE IN CELSIUS
  WCI - WIND CHILL INDEX
   HX - HEAT INDEX
  VSB - VISIBILITY




USA.gov is the U.S. government's official web portal to all federal, state and local government web resources and services.